Stansted, United Kingdom

9:50 PM GMT on January 18, 2018 (GMT +0000)
Stansted

Weather History for EGSS - December, 2013

Change the Weather History Date:

Friday, December 20, 2013

  Actual Average Record
Temperature  
Mean Temperature 42 °F -  
Max Temperature 50 °F 42 °F 57 °F (2015)
Min Temperature 33 °F 33 °F 6 °F (2010)
Degree Days  
Heating Degree Days 24    
Moisture  
Dew Point 37 °F    
Average Humidity 85    
Maximum Humidity 93    
Minimum Humidity 76    
Precipitation  
Precipitation 0.00 in - - ()
Sea Level Pressure  
Sea Level Pressure 30.05 in    
Wind  
Wind Speed 12 mph ()    
Max Wind Speed 29 mph    
Max Gust Speed 40 mph    
Visibility 6.2 miles    
Events Rain    
Averages and records for this station are not official NWS values.
T = Trace of Precipitation, MM = Missing Value Source: Averaged Metar Reports

Daily Weather History Graph

Daily Weather History Graph

Search for Another Location

Airport or City:

Trip Planner

Search our weather history database for the weather conditions in past years. The results will help you decide how hot, cold, wet, or windy it might be!

Date:

Astronomy

Dec. 20, 2013 Rise Set
Actual Time 8:03 AM GMT 3:49 PM GMT
Civil Twilight 7:22 AM GMT 4:30 PM GMT
Nautical Twilight 6:39 AM GMT 5:14 PM GMT
Astronomical Twilight 5:58 AM GMT 5:55 PM GMT
Moon 7:17 PM GMT (12/20) 9:30 AM GMT (12/20)
Length of Visible Light 9h 07m
Length of Day
7h 45m
Waning Gibbous, 92% of the Moon is Illuminated
Dec 20
Waning Gibbous
Dec 25
Last Quarter
Jan 1
New
Jan 8
First Quarter
Jan 16
Full

Hourly Weather History & Observations

Time (GMT) Temp. Windchill Dew Point Humidity Pressure Visibility Wind Dir Wind Speed Gust Speed Precip Events Conditions
12:20 AM 33.8 °F 27.0 °F 32.0 °F 93% 29.83 in - SW 8.1 mph - N/A   Clear
12:50 AM 35.6 °F 28.6 °F 33.8 °F 93% 29.86 in - SW 9.2 mph - N/A   Clear
1:20 AM 33.8 °F 26.4 °F 32.0 °F 93% 29.86 in - SW 9.2 mph - N/A   Clear
1:50 AM 33.8 °F 26.4 °F 32.0 °F 93% 29.89 in - SW 9.2 mph - N/A   Clear
2:20 AM 33.8 °F 25.8 °F 32.0 °F 93% 29.89 in - SW 10.4 mph - N/A   Clear
2:50 AM 33.8 °F 26.4 °F 32.0 °F 93% 29.92 in - SW 9.2 mph - N/A   Clear
3:20 AM 33.8 °F 26.4 °F 32.0 °F 93% 29.92 in - SW 9.2 mph - N/A   Clear
3:50 AM 33.8 °F 25.3 °F 32.0 °F 93% 29.92 in - SW 11.5 mph - N/A   Clear
4:20 AM 33.8 °F 25.8 °F 32.0 °F 93% 29.95 in - SW 10.4 mph - N/A   Clear
4:50 AM 33.8 °F 25.8 °F 32.0 °F 93% 29.95 in - SW 10.4 mph - N/A   Clear
5:20 AM 33.8 °F 26.4 °F 32.0 °F 93% 29.98 in - SSW 9.2 mph - N/A   Clear
5:50 AM 33.8 °F 25.8 °F 32.0 °F 93% 30.01 in - SW 10.4 mph - N/A   Clear
6:20 AM 33.8 °F 25.3 °F 32.0 °F 93% 30.01 in - SW 11.5 mph - N/A   Clear
6:50 AM 33.8 °F 25.3 °F 32.0 °F 93% 30.01 in - SW 11.5 mph - N/A   Clear
7:20 AM 33.8 °F 25.3 °F 32.0 °F 93% 30.04 in - SW 11.5 mph - N/A   Clear
7:50 AM 33.8 °F 25.3 °F 32.0 °F 93% 30.04 in - SW 11.5 mph - N/A   Clear
8:20 AM 33.8 °F 25.8 °F 32.0 °F 93% 30.06 in - SW 10.4 mph - N/A   Clear
8:50 AM 33.8 °F 24.8 °F 32.0 °F 93% 30.09 in - SW 12.7 mph - N/A   Clear
9:20 AM 35.6 °F 27.5 °F 33.8 °F 93% 30.09 in - SSW 11.5 mph - N/A   Clear
9:50 AM 37.4 °F 29.8 °F 33.8 °F 87% 30.12 in - SSW 11.5 mph - N/A   Clear
10:20 AM 39.2 °F 32.0 °F 35.6 °F 87% 30.12 in 6.2 mi SW 11.5 mph - N/A   Partly Cloudy
10:50 AM 39.2 °F 32.0 °F 35.6 °F 87% 30.12 in - SW 11.5 mph - N/A   Clear
11:20 AM 41.0 °F 33.9 °F 37.4 °F 87% 30.15 in - SW 12.7 mph - N/A   Clear
11:50 AM 42.8 °F 35.8 °F 37.4 °F 81% 30.15 in - SW 13.8 mph - N/A   Clear
12:20 PM 44.6 °F 38.1 °F 39.2 °F 81% 30.15 in - SW 13.8 mph - N/A   Clear
12:50 PM 44.6 °F 38.4 °F 39.2 °F 81% 30.15 in 6.2 mi SW 12.7 mph - N/A   Partly Cloudy
1:20 PM 46.4 °F 40.4 °F 39.2 °F 76% 30.15 in 6.2 mi SW 13.8 mph - N/A   Partly Cloudy
1:50 PM 44.6 °F 37.4 °F 39.2 °F 81% 30.15 in 6.2 mi SW 16.1 mph - N/A   Partly Cloudy
2:20 PM 44.6 °F 37.8 °F 37.4 °F 76% 30.15 in - SW 15.0 mph - N/A   Clear
2:50 PM 44.6 °F 37.8 °F 39.2 °F 81% 30.15 in - SW 15.0 mph - N/A   Clear
3:20 PM 44.6 °F 37.8 °F 39.2 °F 81% 30.12 in - SSW 15.0 mph - N/A   Clear
3:50 PM 46.4 °F 39.5 °F 39.2 °F 76% 30.12 in - SSW 17.3 mph - N/A   Clear
4:20 PM 46.4 °F 39.5 °F 39.2 °F 76% 30.12 in - SSW 17.3 mph - N/A   Clear
4:50 PM 46.4 °F 39.8 °F 39.2 °F 76% 30.12 in - SSW 16.1 mph - N/A   Clear
5:20 PM 46.4 °F 39.8 °F 39.2 °F 76% 30.12 in 6.2 mi SSW 16.1 mph - N/A   Mostly Cloudy
5:50 PM 46.4 °F 39.5 °F 41.0 °F 81% 30.12 in 6.2 mi SSW 17.3 mph - N/A   Mostly Cloudy
6:20 PM 46.4 °F 39.2 °F 41.0 °F 81% 30.09 in 6.2 mi South 18.4 mph - N/A   Mostly Cloudy
6:50 PM 48.2 °F - 41.0 °F 76% 30.09 in 6.2 mi SSW 18.4 mph - N/A   Mostly Cloudy
7:20 PM 48.2 °F - 41.0 °F 76% 30.09 in 6.2 mi SSW 19.6 mph - N/A   Mostly Cloudy
7:50 PM 48.2 °F - 41.0 °F 76% 30.06 in 6.2 mi SSW 23.0 mph 34.5 mph N/A   Mostly Cloudy
8:20 PM 48.2 °F - 42.8 °F 82% 30.06 in 5.6 mi SSW 23.0 mph - N/A   Mostly Cloudy
8:50 PM 48.2 °F - 42.8 °F 82% 30.06 in 6.2 mi SSW 27.6 mph - N/A   Mostly Cloudy
9:20 PM 48.2 °F - 42.8 °F 82% 30.06 in 6.2 mi SSW 25.3 mph - N/A   Mostly Cloudy
9:50 PM 48.2 °F - 42.8 °F 82% 30.06 in 6.2 mi SSW 24.2 mph - N/A   Mostly Cloudy
10:20 PM 48.2 °F - 42.8 °F 82% 30.04 in 6.2 mi SSW 23.0 mph - N/A   Overcast
10:50 PM 48.2 °F - 42.8 °F 82% 30.04 in 6.2 mi SSW 24.2 mph - N/A   Overcast
11:20 PM 50.0 °F - 42.8 °F 76% 30.04 in 6.2 mi SSW 24.2 mph - N/A   Mostly Cloudy
11:50 PM 50.0 °F - 42.8 °F 76% 30.01 in 6.2 mi SSW 28.8 mph 40.3 mph N/A Rain Light Rain